| time (UTC) | temp C | wind direction | speed KPH | gust KPH | rain 1hr cm | rain 24hr cm | rain mn cm | humidity % | barometer mb |
| 20260507031744 | 8 | 17 | 0.0 | 0.0 | 403.30 | 0.00 | 0.71 | 81 | 1015.0 |
| 20260507031245 | 8 | 17 | 0.0 | 0.0 | 403.30 | 0.00 | 0.71 | 81 | 1015.1 |
| 20260507030744 | 8 | 17 | 0.0 | 0.0 | 403.30 | 0.00 | 0.71 | 81 | 1015.2 |
| 20260507030244 | 8 | 17 | 0.0 | 0.0 | 403.30 | 0.00 | 0.71 | 81 | 1015.2 |
| 20260507025745 | 8 | 17 | 0.0 | 0.0 | 403.30 | 0.00 | 0.71 | 80 | 1015.2 |
| 20260507025244 | 8 | 17 | 0.0 | 0.0 | 403.30 | 0.00 | 0.71 | 80 | 1015.2 |
| 20260507024744 | 8 | 17 | 0.0 | 0.0 | 403.30 | 0.00 | 0.71 | 80 | 1015.3 |
| 20260507024245 | 8 | 17 | 0.0 | 0.0 | 403.30 | 0.00 | 0.71 | 79 | 1015.3 |
| 20260507023244 | 8 | 17 | 0.0 | 0.0 | 403.30 | 0.00 | 0.71 | 78 | 1015.1 |
| 20260507022245 | 9 | 17 | 0.0 | 0.0 | 403.30 | 0.00 | 0.71 | 76 | 1015.1 |
| 20260507021744 | 9 | 17 | 0.0 | 0.0 | 403.30 | 0.00 | 0.71 | 75 | 1015.0 |
| 20260507021245 | 9 | 17 | 0.0 | 0.0 | 403.30 | 0.00 | 0.71 | 75 | 1014.9 |
| 20260507020744 | 10 | 17 | 0.0 | 0.0 | 403.30 | 0.00 | 0.71 | 75 | 1014.9 |
| 20260507020244 | 10 | 17 | 0.0 | 0.0 | 403.30 | 0.00 | 0.71 | 75 | 1014.8 |
| 20260507015746 | 10 | 17 | 0.0 | 0.0 | 403.30 | 0.00 | 0.71 | 74 | 1014.9 |
| 20260507015244 | 10 | 17 | 0.0 | 0.0 | 403.30 | 0.00 | 0.71 | 74 | 1014.9 |
| 20260507014744 | 10 | 17 | 0.0 | 0.0 | 403.30 | 0.00 | 0.71 | 72 | 1014.9 |
| 20260507014245 | 10 | 17 | 0.0 | 0.0 | 403.30 | 0.00 | 0.71 | 73 | 1014.9 |
| 20260507013744 | 10 | 17 | 0.0 | 0.0 | 403.30 | 0.00 | 0.71 | 72 | 1014.9 |
| 20260507013244 | 11 | 17 | 0.0 | 0.0 | 403.30 | 0.00 | 0.71 | 72 | 1014.9 |
| 20260507012746 | 11 | 17 | 0.0 | 0.0 | 403.30 | 0.00 | 0.71 | 72 | 1014.8 |
| 20260507012244 | 11 | 17 | 0.0 | 0.0 | 403.30 | 0.00 | 0.71 | 71 | 1014.8 |
| 20260507011744 | 11 | 17 | 0.0 | 0.0 | 403.30 | 0.00 | 0.71 | 70 | 1014.8 |
| 20260507011245 | 11 | 17 | 0.0 | 0.0 | 403.30 | 0.00 | 0.71 | 69 | 1014.7 |
| 20260507010744 | 11 | 17 | 0.0 | 0.0 | 403.30 | 0.00 | 0.71 | 68 | 1014.7 |
| 20260507010244 | 11 | 17 | 0.0 | 0.0 | 403.30 | 0.00 | 0.71 | 67 | 1014.6 |
| 20260507005745 | 11 | 17 | 0.0 | 0.0 | 403.30 | 0.00 | 0.71 | 67 | 1014.5 |
| 20260507005244 | 12 | 17 | 0.0 | 0.0 | 403.30 | 0.00 | 0.71 | 66 | 1014.4 |
| 20260507004744 | 12 | 17 | 0.0 | 0.0 | 403.30 | 0.00 | 0.71 | 66 | 1014.4 |
| 20260507004245 | 12 | 17 | 0.0 | 0.0 | 403.30 | 0.00 | 0.71 | 65 | 1014.3 |
| 20260507003744 | 12 | 17 | 0.0 | 0.0 | 403.30 | 0.00 | 0.71 | 64 | 1014.3 |
| 20260507002745 | 12 | 17 | 0.0 | 0.0 | 403.30 | 0.00 | 0.71 | 62 | 1014.2 |
| 20260507002244 | 12 | 17 | 0.0 | 0.0 | 403.30 | 0.00 | 0.71 | 62 | 1014.1 |
| 20260507001744 | 12 | 311 | 0.0 | 0.0 | 403.30 | 0.00 | 0.71 | 62 | 1014.1 |
| 20260507001244 | 12 | 311 | 0.0 | 0.0 | 403.30 | 0.00 | 0.71 | 62 | 1014.0 |
| 20260507000246 | 12 | 311 | 0.0 | 0.0 | 403.30 | 0.00 | 0.71 | 58 | 1014.0 |
| 20260506235744 | 12 | 311 | 0.0 | 0.0 | 403.30 | 0.00 | 0.71 | 57 | 1014.1 |
| 20260506235244 | 12 | 8 | 0.0 | 0.0 | 403.30 | 0.00 | 0.71 | 57 | 1014.1 |
| 20260506234744 | 12 | 8 | 0.0 | 0.0 | 403.30 | 0.00 | 0.71 | 56 | 1013.9 |
| 20260506234244 | 12 | 8 | 0.0 | 0.0 | 403.30 | 0.00 | 0.71 | 56 | 1013.9 |
| 20260506233744 | 12 | 35 | 0.0 | 0.0 | 403.30 | 0.00 | 0.71 | 56 | 1013.9 |
| 20260506233244 | 12 | 329 | 3.2 | 0.0 | 403.30 | 0.00 | 0.71 | 56 | 1013.8 |
| 20260506232744 | 12 | 283 | 3.2 | 0.0 | 403.30 | 0.00 | 0.71 | 56 | 1014.0 |
| 20260506232244 | 12 | 11 | 0.0 | 0.0 | 403.30 | 0.00 | 0.71 | 56 | 1014.0 |
| 20260506231744 | 12 | 343 | 3.2 | 0.0 | 403.30 | 0.00 | 0.71 | 55 | 1014.1 |
| 20260506230744 | 12 | 31 | 3.2 | 0.0 | 403.30 | 0.00 | 0.71 | 53 | 1014.3 |
| 20260506230244 | 13 | 298 | 0.0 | 0.0 | 403.30 | 0.00 | 0.71 | 52 | 1014.3 |
| 20260506225744 | 13 | 336 | 1.6 | 0.0 | 403.30 | 0.00 | 0.71 | 52 | 1014.3 |
| 20260506225244 | 13 | 340 | 6.4 | 0.0 | 403.30 | 0.00 | 0.71 | 53 | 1014.3 |
| 20260506224744 | 13 | 325 | 4.8 | 0.0 | 403.30 | 0.00 | 0.71 | 52 | 1014.4 |
| 20260506224244 | 13 | 316 | 4.8 | 0.0 | 403.30 | 0.00 | 0.71 | 51 | 1014.4 |
| 20260506223744 | 13 | 24 | 6.4 | 0.0 | 403.30 | 0.00 | 0.71 | 52 | 1014.3 |
| 20260506223244 | 13 | 284 | 12.9 | 0.0 | 403.30 | 0.00 | 0.71 | 53 | 1014.2 |
| 20260506222744 | 13 | 273 | 6.4 | 0.0 | 403.30 | 0.00 | 0.71 | 53 | 1014.3 |
| 20260506222244 | 13 | 7 | 4.8 | 0.0 | 403.30 | 0.00 | 0.71 | 55 | 1014.3 |
| 20260506221744 | 13 | 34 | 3.2 | 0.0 | 403.30 | 0.00 | 0.71 | 53 | 1014.3 |
| 20260506221244 | 13 | 333 | 1.6 | 0.0 | 403.30 | 0.00 | 0.71 | 53 | 1014.2 |
| 20260506220744 | 13 | 339 | 6.4 | 0.0 | 403.30 | 0.00 | 0.71 | 52 | 1014.1 |
| 20260506220244 | 13 | 353 | 6.4 | 0.0 | 403.30 | 0.00 | 0.71 | 52 | 1014.1 |
| 20260506215744 | 13 | 302 | 6.4 | 0.0 | 403.30 | 0.00 | 0.71 | 52 | 1014.0 |
| 20260506215244 | 13 | 63 | 1.6 | 0.0 | 403.30 | 0.00 | 0.71 | 53 | 1013.9 |
| 20260506214244 | 13 | 300 | 3.2 | 0.0 | 403.30 | 0.00 | 0.71 | 53 | 1013.7 |
| 20260506213744 | 13 | 97 | 3.2 | 0.0 | 403.30 | 0.00 | 0.71 | 53 | 1013.6 |
| 20260506213244 | 13 | 4 | 6.4 | 0.0 | 403.30 | 0.00 | 0.71 | 55 | 1013.6 |
| 20260506212747 | 13 | 21 | 4.8 | 0.0 | 403.30 | 0.00 | 0.71 | 53 | 1013.6 |
| 20260506212244 | 13 | 345 | 6.4 | 0.0 | 403.30 | 0.00 | 0.71 | 53 | 1013.6 |
| 20260506211744 | 13 | 24 | 4.8 | 0.0 | 403.30 | 0.00 | 0.71 | 51 | 1013.6 |
| 20260506211245 | 13 | 328 | 8.0 | 0.0 | 403.30 | 0.00 | 0.71 | 52 | 1013.6 |
| 20260506210744 | 13 | 8 | 6.4 | 0.0 | 403.30 | 0.00 | 0.71 | 53 | 1013.6 |
| 20260506210244 | 13 | 300 | 6.4 | 0.0 | 403.30 | 0.00 | 0.71 | 52 | 1013.6 |
| 20260506205745 | 13 | 323 | 8.0 | 0.0 | 403.30 | 0.00 | 0.71 | 52 | 1013.7 |
| 20260506205246 | 13 | 353 | 8.0 | 0.0 | 403.30 | 0.00 | 0.71 | 52 | 1013.6 |
| 20260506204745 | 13 | 3 | 3.2 | 0.0 | 403.30 | 0.00 | 0.71 | 53 | 1013.6 |
| 20260506203745 | 13 | 31 | 9.7 | 0.0 | 403.30 | 0.00 | 0.71 | 50 | 1013.5 |
| 20260506203246 | 13 | 298 | 8.0 | 0.0 | 403.30 | 0.00 | 0.71 | 52 | 1013.4 |
| 20260506202746 | 13 | 17 | 4.8 | 0.0 | 403.30 | 0.00 | 0.71 | 50 | 1013.3 |
| 20260506202245 | 13 | 300 | 8.0 | 0.0 | 403.30 | 0.00 | 0.71 | 50 | 1013.3 |
| 20260506201745 | 13 | 4 | 4.8 | 0.0 | 403.30 | 0.00 | 0.71 | 51 | 1013.4 |
| 20260506201244 | 13 | 14 | 12.9 | 0.0 | 403.30 | 0.00 | 0.71 | 51 | 1013.3 |
| 20260506195744 | 13 | 277 | 6.4 | 0.0 | 403.30 | 0.00 | 0.71 | 52 | 1013.3 |
| 20260506195244 | 13 | 321 | 3.2 | 0.0 | 403.30 | 0.00 | 0.71 | 53 | 1013.3 |
| 20260506194746 | 13 | 340 | 3.2 | 0.0 | 403.30 | 0.00 | 0.71 | 53 | 1013.5 |
| 20260506194244 | 13 | 66 | 4.8 | 0.0 | 403.30 | 0.00 | 0.71 | 52 | 1013.5 |
| 20260506193744 | 13 | 340 | 6.4 | 0.0 | 403.30 | 0.00 | 0.71 | 52 | 1013.5 |
| 20260506193244 | 13 | 13 | 9.7 | 0.0 | 403.30 | 0.00 | 0.71 | 52 | 1013.6 |
| 20260506192244 | 13 | 17 | 0.0 | 0.0 | 403.30 | 0.00 | 0.71 | 53 | 1013.5 |
| 20260506191744 | 13 | 260 | 4.8 | 0.0 | 403.30 | 0.00 | 0.71 | 52 | 1013.5 |
| 20260506190744 | 13 | 301 | 3.2 | 0.0 | 403.30 | 0.00 | 0.71 | 50 | 1013.5 |
| 20260506190244 | 13 | 359 | 11.3 | 0.0 | 403.30 | 0.00 | 0.71 | 49 | 1013.3 |
| 20260506185744 | 14 | 3 | 9.7 | 0.0 | 403.30 | 0.00 | 0.71 | 49 | 1013.2 |
| 20260506185244 | 14 | 356 | 4.8 | 0.0 | 403.30 | 0.00 | 0.71 | 52 | 1013.2 |
| 20260506184744 | 14 | 34 | 8.0 | 0.0 | 403.30 | 0.00 | 0.71 | 50 | 1013.2 |
| 20260506184244 | 15 | 20 | 11.3 | 0.0 | 403.30 | 0.00 | 0.71 | 50 | 1013.3 |
| 20260506183744 | 15 | 359 | 12.9 | 0.0 | 403.30 | 0.00 | 0.71 | 53 | 1013.4 |
| 20260506183244 | 15 | 7 | 11.3 | 0.0 | 403.30 | 0.00 | 0.71 | 51 | 1013.4 |
| 20260506182744 | 15 | 13 | 11.3 | 0.0 | 403.30 | 0.00 | 0.71 | 54 | 1013.3 |
| 20260506182502 | 15 | 46 | 4.8 | 0.0 | 403.30 | 0.00 | 0.71 | 51 | 1013.6 |
| 20260506182244 | 15 | 20 | 6.4 | 0.0 | 403.30 | 0.00 | 0.71 | 53 | 1013.3 |
| 20260506181744 | 15 | 46 | 4.8 | 0.0 | 403.30 | 0.00 | 0.71 | 51 | 1013.6 |
| 20260506181244 | 15 | 315 | 16.1 | 0.0 | 403.30 | 0.00 | 0.71 | 52 | 1013.5 |
| 20260506180744 | 15 | 15 | 3.2 | 0.0 | 403.30 | 0.00 | 0.71 | 49 | 1013.4 |
| 20260506180244 | 15 | 326 | 12.9 | 0.0 | 403.30 | 0.00 | 0.71 | 50 | 1013.4 |
| 20260506175744 | 15 | 312 | 6.4 | 0.0 | 403.30 | 0.00 | 0.71 | 52 | 1013.4 |
| 20260506175244 | 15 | 278 | 8.0 | 0.0 | 403.30 | 0.00 | 0.71 | 50 | 1013.3 |
| 20260506174744 | 15 | 3 | 11.3 | 0.0 | 403.30 | 0.00 | 0.71 | 53 | 1013.4 |
| 20260506174244 | 14 | 346 | 9.7 | 0.0 | 403.30 | 0.00 | 0.71 | 52 | 1013.4 |
| 20260506173744 | 14 | 316 | 8.0 | 0.0 | 403.30 | 0.00 | 0.71 | 53 | 1013.3 |
| 20260506173632 | 14 | 356 | 9.7 | 0.0 | 403.30 | 0.00 | 0.71 | 52 | 1013.4 |
| 20260506173245 | 14 | 356 | 9.7 | 0.0 | 403.30 | 0.00 | 0.71 | 52 | 1013.4 |
| 20260506172244 | 14 | 340 | 9.7 | 0.0 | 403.30 | 0.00 | 0.71 | 55 | 1013.4 |
| 20260506171744 | 13 | 359 | 4.8 | 0.0 | 403.30 | 0.00 | 0.71 | 52 | 1013.3 |
| 20260506171244 | 13 | 346 | 12.9 | 0.0 | 403.30 | 0.00 | 0.71 | 52 | 1013.3 |
| 20260506170244 | 13 | 333 | 4.8 | 0.0 | 403.30 | 0.00 | 0.71 | 58 | 1013.2 |
| 20260506165955 | 13 | 269 | 12.9 | 0.0 | 403.30 | 0.00 | 0.71 | 61 | 1013.3 |
| 20260506165744 | 13 | 269 | 12.9 | 0.0 | 403.30 | 0.00 | 0.71 | 61 | 1013.3 |
| 20260506165244 | 13 | 332 | 9.7 | 0.0 | 403.30 | 0.00 | 0.71 | 58 | 1013.4 |
| 20260506164744 | 13 | 349 | 4.8 | 0.0 | 403.30 | 0.00 | 0.71 | 60 | 1013.4 |
| 20260506164244 | 13 | 336 | 1.6 | 0.0 | 403.30 | 0.00 | 0.71 | 58 | 1013.5 |
| 20260506163744 | 13 | 4 | 8.0 | 0.0 | 403.30 | 0.00 | 0.71 | 63 | 1013.4 |
| 20260506163246 | 13 | 1 | 4.8 | 0.0 | 403.30 | 0.00 | 0.71 | 62 | 1013.3 |
| 20260506162744 | 13 | 10 | 16.1 | 0.0 | 403.30 | 0.00 | 0.71 | 63 | 1013.2 |
| 20260506162243 | 13 | 13 | 3.2 | 0.0 | 403.30 | 0.00 | 0.71 | 65 | 1013.3 |
| 20260506161744 | 12 | 359 | 12.9 | 0.0 | 403.30 | 0.00 | 0.71 | 62 | 1013.5 |
| 20260506161539 | 12 | 325 | 9.7 | 0.0 | 403.30 | 0.00 | 0.71 | 65 | 1013.4 |
| 20260506161244 | 12 | 325 | 9.7 | 0.0 | 403.30 | 0.00 | 0.71 | 65 | 1013.4 |
| 20260506160744 | 12 | 69 | 3.2 | 0.0 | 403.30 | 0.00 | 0.71 | 64 | 1013.4 |
| 20260506160243 | 12 | 315 | 8.0 | 0.0 | 403.30 | 0.00 | 0.71 | 64 | 1013.3 |
| 20260506155745 | 12 | 315 | 9.7 | 0.0 | 403.30 | 0.00 | 0.71 | 65 | 1013.1 |
| 20260506155243 | 12 | 359 | 9.7 | 0.0 | 403.30 | 0.00 | 0.71 | 69 | 1013.1 |
| 20260506154744 | 12 | 14 | 8.0 | 0.0 | 403.30 | 0.00 | 0.71 | 65 | 1013.2 |
| 20260506154244 | 12 | 332 | 1.6 | 0.0 | 403.30 | 0.00 | 0.71 | 68 | 1013.0 |
| 20260506153744 | 11 | 84 | 4.8 | 0.0 | 403.30 | 0.00 | 0.71 | 68 | 1012.9 |
| 20260506153244 | 11 | 352 | 4.8 | 0.0 | 403.30 | 0.00 | 0.71 | 70 | 1012.8 |
| 20260506152744 | 11 | 338 | 9.7 | 0.0 | 403.30 | 0.00 | 0.71 | 69 | 1012.7 |
| 20260506152244 | 11 | 307 | 11.3 | 0.0 | 403.30 | 0.00 | 0.71 | 69 | 1012.8 |
| 20260506151744 | 11 | 27 | 3.2 | 0.0 | 403.30 | 0.00 | 0.71 | 69 | 1012.7 |
| 20260506151244 | 11 | 18 | 1.6 | 0.0 | 403.30 | 0.00 | 0.71 | 69 | 1012.6 |
| 20260506150744 | 11 | 30 | 6.4 | 0.0 | 403.30 | 0.00 | 0.71 | 69 | 1012.7 |
| 20260506150243 | 11 | 297 | 6.4 | 0.0 | 403.30 | 0.00 | 0.71 | 68 | 1012.6 |
| 20260506145244 | 11 | 281 | 4.8 | 0.0 | 403.30 | 0.00 | 0.71 | 70 | 1012.7 |
| 20260506144743 | 11 | 346 | 3.2 | 0.0 | 403.30 | 0.00 | 0.71 | 68 | 1012.7 |
| 20260506144509 | 11 | 321 | 3.2 | 0.0 | 403.30 | 0.00 | 0.71 | 73 | 1012.6 |
| 20260506144244 | 11 | 321 | 3.2 | 0.0 | 403.30 | 0.00 | 0.71 | 73 | 1012.6 |
| 20260506143744 | 10 | 319 | 6.4 | 0.0 | 403.30 | 0.00 | 0.71 | 71 | 1012.6 |
| 20260506143243 | 10 | 17 | 0.0 | 0.0 | 403.30 | 0.00 | 0.71 | 70 | 1012.6 |
| 20260506142744 | 10 | 359 | 4.8 | 0.0 | 403.30 | 0.00 | 0.71 | 69 | 1012.3 |
| 20260506142243 | 10 | 8 | 1.6 | 0.0 | 403.30 | 0.00 | 0.71 | 72 | 1012.3 |
| 20260506141743 | 10 | 359 | 11.3 | 0.0 | 403.30 | 0.00 | 0.71 | 74 | 1012.1 |
| 20260506141244 | 10 | 308 | 14.5 | 0.0 | 403.30 | 0.00 | 0.71 | 75 | 1012.1 |
| 20260506140745 | 10 | 14 | 9.7 | 0.0 | 403.30 | 0.00 | 0.71 | 76 | 1011.9 |
| 20260506140243 | 10 | 322 | 8.0 | 0.0 | 403.30 | 0.00 | 0.71 | 76 | 1011.9 |
| 20260506135744 | 10 | 328 | 1.6 | 0.0 | 403.30 | 0.00 | 0.71 | 78 | 1011.9 |
| 20260506135243 | 10 | 21 | 6.4 | 0.0 | 403.30 | 0.00 | 0.71 | 78 | 1011.8 |
| 20260506134743 | 9 | 352 | 3.2 | 0.0 | 403.30 | 0.00 | 0.71 | 78 | 1011.7 |
| 20260506134244 | 9 | 204 | 3.2 | 0.0 | 403.30 | 0.00 | 0.71 | 82 | 1011.6 |
| 20260506133743 | 9 | 311 | 3.2 | 0.0 | 403.30 | 0.00 | 0.71 | 81 | 1011.7 |
| 20260506133245 | 9 | 20 | 4.8 | 0.0 | 403.30 | 0.00 | 0.71 | 82 | 1011.8 |
| 20260506132744 | 9 | 28 | 6.4 | 0.0 | 403.30 | 0.00 | 0.71 | 82 | 1011.7 |
| 20260506131745 | 8 | 38 | 8.0 | 0.0 | 403.30 | 0.00 | 0.71 | 84 | 1011.8 |
| 20260506131244 | 8 | 349 | 3.2 | 0.0 | 403.30 | 0.00 | 0.71 | 84 | 1011.7 |
| 20260506130743 | 8 | 34 | 8.0 | 0.0 | 403.30 | 0.00 | 0.71 | 84 | 1011.7 |
| 20260506130243 | 8 | 14 | 6.4 | 0.0 | 403.30 | 0.00 | 0.71 | 86 | 1011.7 |
| 20260506125744 | 8 | 359 | 1.6 | 0.0 | 403.30 | 0.00 | 0.71 | 86 | 1011.7 |
| 20260506125243 | 8 | 350 | 1.6 | 0.0 | 403.30 | 0.00 | 0.71 | 86 | 1011.7 |
| 20260506124743 | 8 | 11 | 3.2 | 0.0 | 403.30 | 0.00 | 0.71 | 86 | 1011.5 |
| 20260506124327 | 8 | 352 | 1.6 | 0.0 | 403.30 | 0.00 | 0.71 | 87 | 1011.5 |
| 20260506124244 | 8 | 352 | 1.6 | 0.0 | 403.30 | 0.00 | 0.71 | 87 | 1011.5 |
| 20260506123743 | 8 | 311 | 4.8 | 0.0 | 403.30 | 0.00 | 0.71 | 87 | 1011.5 |
| 20260506123243 | 8 | 236 | 1.6 | 0.0 | 403.30 | 0.00 | 0.71 | 88 | 1011.3 |
| 20260506122743 | 8 | 13 | 4.8 | 0.0 | 403.30 | 0.00 | 0.71 | 87 | 1011.1 |
| 20260506122243 | 8 | 46 | 1.6 | 0.0 | 403.30 | 0.00 | 0.71 | 89 | 1011.1 |
| 20260506121743 | 8 | 349 | 4.8 | 0.0 | 403.30 | 0.00 | 0.71 | 89 | 1011.1 |
| 20260506121243 | 8 | 323 | 3.2 | 0.0 | 403.30 | 0.00 | 0.71 | 89 | 1010.9 |
| 20260506120743 | 8 | 66 | 4.8 | 0.0 | 403.30 | 0.00 | 0.71 | 89 | 1010.8 |
| 20260506120243 | 8 | 60 | 3.2 | 0.0 | 403.30 | 0.00 | 0.71 | 90 | 1010.8 |
| 20260506115316 | 8 | 53 | 6.4 | 0.0 | 403.30 | 0.00 | 0.71 | 91 | 1010.5 |
| 20260506115243 | 7 | 25 | 0.0 | 0.0 | 403.30 | 0.00 | 0.71 | 90 | 1010.8 |
| 20260506114743 | 8 | 345 | 6.4 | 0.0 | 403.30 | 0.00 | 0.71 | 91 | 1010.8 |
| 20260506114244 | 8 | 53 | 6.4 | 0.0 | 403.30 | 0.00 | 0.71 | 91 | 1010.5 |
| 20260506113846 | 7 | 25 | 4.8 | 0.0 | 403.30 | 0.00 | 0.71 | 91 | 1010.1 |
| 20260506113430 | 7 | 7 | 4.8 | 0.0 | 403.30 | 0.00 | 0.71 | 91 | 1010.1 |
| 20260506113243 | 7 | 25 | 4.8 | 0.0 | 403.30 | 0.00 | 0.71 | 91 | 1010.1 |
| 20260506112243 | 7 | 7 | 4.8 | 0.0 | 403.30 | 0.00 | 0.71 | 91 | 1010.1 |
| 20260506111743 | 7 | 27 | 6.4 | 0.0 | 403.30 | 0.00 | 0.71 | 91 | 1009.6 |
| 20260506111651 | 7 | 4 | 12.9 | 0.0 | 403.30 | 0.00 | 0.71 | 93 | 1009.6 |
| 20260506111243 | 7 | 4 | 12.9 | 0.0 | 403.30 | 0.00 | 0.71 | 93 | 1009.6 |
| 20260506110743 | 7 | 34 | 1.6 | 0.0 | 403.30 | 0.00 | 0.71 | 93 | 1009.9 |
| 20260506110243 | 8 | 1 | 8.0 | 0.0 | 403.30 | 0.00 | 0.71 | 94 | 1009.3 |
| 20260506105744 | 8 | 345 | 9.7 | 0.0 | 403.30 | 0.00 | 0.71 | 94 | 1009.7 |
| 20260506105244 | 8 | 10 | 8.0 | 0.0 | 403.30 | 0.00 | 0.71 | 94 | 1009.9 |
| 20260506104743 | 8 | 7 | 12.9 | 0.0 | 403.30 | 0.00 | 0.71 | 94 | 1010.1 |
| 20260506103743 | 8 | 350 | 3.2 | 0.0 | 403.30 | 0.00 | 0.71 | 95 | 1009.6 |
| 20260506103505 | 8 | 8 | 8.0 | 0.0 | 403.30 | 0.00 | 0.71 | 95 | 1009.5 |
| 20260506103244 | 8 | 42 | 9.7 | 0.0 | 403.30 | 0.00 | 0.71 | 95 | 1009.1 |
| 20260506102743 | 8 | 42 | 9.7 | 0.0 | 403.30 | 0.00 | 0.71 | 95 | 1009.1 |
| 20260506102329 | 8 | 38 | 14.5 | 0.0 | 403.30 | 0.00 | 0.71 | 95 | 1009.6 |
| 20260506102243 | 8 | 138 | 1.6 | 0.0 | 403.30 | 0.00 | 0.71 | 95 | 1009.3 |
| 20260506101743 | 8 | 38 | 14.5 | 0.0 | 403.30 | 0.00 | 0.71 | 95 | 1009.6 |
| 20260506101712 | 8 | 343 | 0.0 | 0.0 | 403.30 | 0.00 | 0.71 | 95 | 1009.5 |
| 20260506101243 | 8 | 278 | 6.4 | 0.0 | 403.30 | 0.00 | 0.71 | 95 | 1009.8 |
| 20260506100743 | 8 | 343 | 0.0 | 0.0 | 403.30 | 0.00 | 0.71 | 95 | 1009.5 |
| 20260506100243 | 8 | 345 | 8.0 | 0.0 | 403.30 | 0.00 | 0.71 | 95 | 1009.0 |
| 20260506095743 | 8 | 340 | 9.7 | 0.0 | 403.30 | 0.00 | 0.71 | 95 | 1009.0 |
| 20260506095243 | 8 | 290 | 0.0 | 0.0 | 403.30 | 0.00 | 0.71 | 95 | 1008.6 |
| 20260506094852 | 8 | 39 | 0.0 | 0.0 | 403.30 | 0.00 | 0.71 | 95 | 1008.8 |
| 20260506094747 | 8 | 39 | 0.0 | 0.0 | 403.30 | 0.00 | 0.71 | 95 | 1008.8 |
| 20260506093857 | 8 | 23 | 0.0 | 0.0 | 403.30 | 0.00 | 0.71 | 95 | 1008.2 |
| 20260506093743 | 8 | 23 | 0.0 | 0.0 | 403.30 | 0.00 | 0.71 | 95 | 1008.2 |
| 20260506093243 | 8 | 11 | 6.4 | 0.0 | 403.30 | 0.00 | 0.71 | 95 | 1008.5 |
| 20260506092743 | 8 | 172 | 0.0 | 0.0 | 403.30 | 0.00 | 0.71 | 95 | 1008.3 |
| 20260506092243 | 8 | 172 | 0.0 | 0.0 | 403.30 | 0.00 | 0.71 | 95 | 1008.3 |
| 20260506091743 | 8 | 11 | 4.8 | 0.0 | 403.30 | 0.00 | 0.71 | 95 | 1008.2 |
| 20260506091607 | 8 | 51 | 3.2 | 0.0 | 403.30 | 0.00 | 0.71 | 95 | 1008.3 |
| 20260506091243 | 8 | 51 | 3.2 | 0.0 | 403.30 | 0.00 | 0.71 | 95 | 1008.3 |
| 20260506091006 | 8 | 37 | 8.0 | 0.0 | 403.30 | 0.00 | 0.71 | 95 | 1008.5 |
| 20260506090752 | 8 | 7 | 3.2 | 0.0 | 403.30 | 0.00 | 0.71 | 95 | 1008.3 |
| 20260506090743 | 8 | 37 | 8.0 | 0.0 | 403.30 | 0.00 | 0.71 | 95 | 1008.5 |
| 20260506090243 | 8 | 7 | 3.2 | 0.0 | 403.30 | 0.00 | 0.71 | 95 | 1008.3 |
| 20260506085743 | 8 | 41 | 4.8 | 0.0 | 403.30 | 0.00 | 0.71 | 95 | 1008.5 |
| 20260506084743 | 8 | 359 | 11.3 | 0.0 | 403.28 | 0.00 | 0.69 | 95 | 1008.5 |
| 20260506084243 | 8 | 335 | 6.4 | 0.0 | 403.28 | 0.00 | 0.69 | 95 | 1008.7 |
| 20260506083743 | 8 | 359 | 6.4 | 0.0 | 403.25 | 0.00 | 0.66 | 95 | 1008.8 |
| 20260506083243 | 8 | 297 | 0.0 | 0.0 | 403.25 | 0.00 | 0.66 | 95 | 1008.8 |
| 20260506082830 | 8 | 25 | 9.7 | 0.0 | 403.23 | 0.00 | 0.64 | 95 | 1008.8 |
| 20260506082743 | 8 | 25 | 9.7 | 0.0 | 403.23 | 0.00 | 0.64 | 95 | 1008.8 |
| 20260506082243 | 8 | 31 | 11.3 | 0.0 | 403.23 | 0.00 | 0.64 | 95 | 1008.7 |
| 20260506081743 | 8 | 356 | 9.7 | 0.0 | 403.23 | 0.00 | 0.64 | 95 | 1008.6 |
| 20260506080743 | 8 | 10 | 3.2 | 0.0 | 403.17 | 0.00 | 0.58 | 95 | 1008.7 |
| 20260506080741 | 8 | 28 | 3.2 | 0.0 | 403.12 | 0.00 | 0.53 | 95 | 1008.6 |
| 20260506080243 | 8 | 28 | 3.2 | 0.0 | 403.12 | 0.00 | 0.53 | 95 | 1008.6 |
| 20260506072743 | 8 | 10 | 8.0 | 0.0 | 403.10 | 0.00 | 0.51 | 95 | 1008.1 |
| 20260506072243 | 8 | 343 | 6.4 | 0.0 | 403.07 | 0.00 | 0.48 | 95 | 1007.9 |
| 20260506071743 | 8 | 31 | 9.7 | 0.0 | 403.07 | 0.00 | 0.48 | 95 | 1008.2 |
| 20260506071243 | 8 | 357 | 9.7 | 0.0 | 403.07 | 0.00 | 0.48 | 95 | 1008.4 |
| 20260506070743 | 8 | 359 | 6.4 | 0.0 | 403.07 | 0.00 | 0.48 | 95 | 1008.4 |
| 20260506070244 | 8 | 356 | 1.6 | 0.0 | 403.05 | 0.00 | 0.46 | 95 | 1008.3 |
| 20260506070216 | 8 | 346 | 3.2 | 0.0 | 403.02 | 0.00 | 0.43 | 95 | 1008.2 |
| 20260506062243 | 8 | 41 | 0.0 | 0.0 | 402.95 | 0.00 | 0.36 | 94 | 1008.2 |
| 20260506061743 | 8 | 340 | 12.9 | 0.0 | 402.92 | 0.00 | 0.33 | 94 | 1008.2 |
| 20260506061247 | 8 | 325 | 6.4 | 0.0 | 402.89 | 0.00 | 0.30 | 94 | 1008.3 |
| 20260506060743 | 8 | 17 | 4.8 | 0.0 | 402.89 | 0.00 | 0.30 | 94 | 1008.3 |
| 20260506060243 | 8 | 132 | 8.0 | 0.0 | 402.87 | 0.00 | 0.28 | 94 | 1008.4 |
| 20260506051243 | 9 | 34 | 3.2 | 0.0 | 402.74 | 0.00 | 0.15 | 94 | 1008.3 |
| 20260506050742 | 9 | 28 | 6.4 | 0.0 | 402.74 | 0.00 | 0.15 | 94 | 1008.4 |
| 20260506050243 | 9 | 28 | 8.0 | 0.0 | 402.74 | 0.00 | 0.15 | 94 | 1008.5 |
| 20260506050135 | 10 | 7 | 4.8 | 0.0 | 402.69 | 0.00 | 0.10 | 94 | 1008.7 |
| 20260506044742 | 10 | 342 | 8.0 | 0.0 | 402.67 | 0.00 | 0.08 | 94 | 1008.8 |
| 20260506044553 | 10 | 290 | 8.0 | 0.0 | 402.59 | 0.00 | 0.00 | 94 | 1008.8 |
| 20260506044244 | 10 | 297 | 9.7 | 0.0 | 402.64 | 0.00 | 0.05 | 94 | 1008.8 |
| 20260506043742 | 10 | 290 | 8.0 | 0.0 | 402.59 | 0.00 | 0.00 | 94 | 1008.8 |
| 20260506042626 | 10 | 1 | 4.8 | 0.0 | 402.59 | 0.00 | 2.54 | 94 | 1008.6 |
| 20260506042243 | 10 | 1 | 4.8 | 0.0 | 402.59 | 0.00 | 2.54 | 94 | 1008.6 |
| 20260506042223 | 10 | 13 | 8.0 | 0.0 | 402.59 | 0.00 | 2.54 | 94 | 1008.4 |
| 20260506041742 | 10 | 13 | 8.0 | 0.0 | 402.59 | 0.00 | 2.54 | 94 | 1008.4 |
| 20260506040743 | 10 | 82 | 0.0 | 0.0 | 402.59 | 0.00 | 2.54 | 94 | 1008.4 |
| 20260506040540 | 10 | 4 | 6.4 | 0.0 | 402.59 | 0.00 | 2.54 | 94 | 1008.4 |
| 20260506040506 | 10 | 66 | 1.6 | 0.0 | 402.59 | 0.00 | 2.54 | 94 | 1008.4 |
| 20260506040243 | 10 | 4 | 6.4 | 0.0 | 402.59 | 0.00 | 2.54 | 94 | 1008.4 |
| 20260506035811 | 10 | 37 | 6.4 | 0.0 | 402.59 | 0.00 | 2.54 | 94 | 1008.4 |
| 20260506035743 | 10 | 66 | 1.6 | 0.0 | 402.59 | 0.00 | 2.54 | 94 | 1008.4 |
| 20260506035243 | 10 | 37 | 6.4 | 0.0 | 402.59 | 0.00 | 2.54 | 94 | 1008.4 |
| 20260506034742 | 10 | 7 | 0.0 | 0.0 | 402.59 | 0.00 | 2.54 | 94 | 1008.6 |
| 20260506034547 | 10 | 8 | 0.0 | 0.0 | 402.56 | 0.00 | 2.51 | 94 | 1008.6 |
| 20260506034243 | 10 | 8 | 0.0 | 0.0 | 402.56 | 0.00 | 2.51 | 94 | 1008.6 |
| 20260506034217 | 10 | 309 | 3.2 | 0.0 | 402.56 | 0.00 | 2.51 | 94 | 1008.6 |
| 20260506033742 | 10 | 309 | 3.2 | 0.0 | 402.56 | 0.00 | 2.51 | 94 | 1008.6 |
| 20260506033242 | 10 | 10 | 9.7 | 0.0 | 402.56 | 0.00 | 2.51 | 93 | 1008.7 |
| 20260506032933 | 10 | 359 | 4.8 | 0.0 | 402.54 | 0.00 | 2.49 | 93 | 1008.9 |
| 20260506032744 | 10 | 23 | 9.7 | 0.0 | 402.54 | 0.00 | 2.49 | 94 | 1008.9 |
| 20260506032243 | 10 | 359 | 4.8 | 0.0 | 402.54 | 0.00 | 2.49 | 93 | 1008.9 |